Terminal Aerodrome Forecast
Issued by NWS

Home | Current Version | Previous Version | Text Only | Print | Product List | Glossary On
Versions: 1 2 3 4 5 6 7 8 9 10 11 12 13 14 15 16 17 18 19 20 21 22
084
FTUS41 KBGM 310535
TAFELM
TAF
KELM 310535Z 3106/0106 VRB03KT P6SM OVC012
      TEMPO 3108/3111 4SM -SHRA BR OVC008
     FM311500 VRB04KT P6SM -SHRA OVC025
     FM311800 36008KT P6SM SCT025 OVC035
     FM010300 00000KT 5SM BR BKN015 OVC022
      TEMPO 0104/0106 2SM BR OVC009=

USA.gov is the U.S. government's official web portal to all federal, state and local government web resources and services.